Location: Unspecified
(0.0000°N, 0.0000°E)
Time: 02:48:04
(UTC+00:00)

deb r/b Ablestar - Pass Details

Date: 08 March 2026
Orbit: 937 x 1853 km, 67.2° (Epoch: 12 April)

Event Time Altitude Azimuth Distance (km) Brightness Sun altitude
Rises 20:08:07 0° 344° (NNW) 5,076 ? -29.3°
Reaches altitude 10° 20:11:16 10° 346° (NNW) 4,142 ? -30.0°
Maximum altitude 20:22:08 78° 72° (ENE) 1,879 ? -32.7°
Enters shadow 20:28:30 30° 154° (SSE) 2,860 ? -34.3°
Exits shadow 20:34:18 - 157° (SSE) 4,517 ? -35.8°
Sets 20:35:44 0° 158° (SSE) 4,952 ? -36.1°
